Regional Weather Roundup
Issued by NWS

Home | Current Version | Previous Version | Graphics & Text | Print | Product List | Glossary On
Versions: 1 2 3 4 5 6 7 8 9 10 11 12 13 14 15 16 17 18 19 20 21 22 23 24 25 26 27 28 29 30 31 32 33 34 35 36 37 38 39 40 41 42 43 44 45 46 47 48 49 50
000
ASUS43 KLSX 280959
RWRMO

WEATHER SUMMARY FOR MISSOURI
NATIONAL WEATHER SERVICE SPRINGFIELD MO
400 AM CST FRI NOV 28 2014

NOTE: "FAIR" INDICATES FEW OR NO CLOUDS BELOW 12,000 FEET WITH NO
       SIGNIFICANT WEATHER AND/OR OBSTRUCTIONS TO VISIBILITY.
       CURRENT SKY AND/OR WEATHER CONDITIONS ARE NOT AVAILABLE FOR
       CHILLICOTHE AND FARMINGTON.

MOZ001>031-035>038-043-044-053-054-281100-
...NORTHERN AND WESTERN MISSOURI...

CITY           SKY/WX    TMP DP  RH WIND       PRES   REMARKS
KANSAS CTY INT PTCLDY    34  23  64 S15       30.08F WCI  24
KANSAS C DTWN  CLEAR     35  22  58 S9        30.11F WCI  28
LEE`S SUMMIT   CLEAR     33  22  63 S12G21    30.12F WCI  24
ST JOSEPH      CLEAR     30  22  72 SE12      30.08F WCI  20
CHILLICOTHE      N/A     29  23  78 SE8       30.16F WCI  21
KIRKSVILLE     PTCLDY    21  18  88 SE12      30.19F WCI   9

$$
MOZ066>068-077>081-088>096-101>105-281100-
...SOUTHWEST MISSOURI...

CITY           SKY/WX    TMP DP  RH WIND       PRES   REMARKS
SPRINGFIELD    CLEAR     33  24  69 SE17      30.21F WCI  22
JOPLIN         CLEAR     36  25  64 S13       30.19F WCI  27

$$
MOZ032>034-039>042-045>050-055>058-069>072-281100-
...CENTRAL MISSOURI...

CITY           SKY/WX    TMP DP  RH WIND       PRES   REMARKS
COLUMBIA       CLEAR     29  23  78 SE10      30.23F WCI  20
JEFFERSON CITY CLEAR     30  23  75 E8        30.26F WCI  22
ROLLA          CLEAR     28  21  75 SE8       30.24F WCI  20
SEDALIA        CLEAR     31  23  72 S8        30.20F WCI  23
OSAGE BEACH    CLEAR     30  21  69 S10       30.22F WCI  21

$$
MOZ051-052-059>065-281100-
...EAST CENTRAL MISSOURI...

CITY           SKY/WX    TMP DP  RH WIND       PRES   REMARKS
ST LOUIS INTL  PTCLDY    26  19  74 SE9       30.34F WCI  17
SPIRIT OF STL  CLEAR     26  21  81 SE5       30.32F WCI  20
ST CHARLES     CLEAR     24  20  84 SE7       30.34F WCI  16

$$
MOZ072>076-082>087-097>100-106>115-281100-
...SOUTH CENTRAL AND SOUTHEAST MISSOURI...

CITY           SKY/WX    TMP DP  RH WIND       PRES   REMARKS
CAPE GIRARDEAU CLEAR     29  26  89 SE6       30.40F WCI  23
FARMINGTON     CLEAR     27  25  93 SE6       30.33F WCI  20
POPLAR BLUFF   CLEAR     26  22  84 CALM      30.40R
WEST PLAINS    CLEAR     29  22  75 S5        30.30F WCI  24

$$


USA.gov is the U.S. government's official web portal to all federal, state and local government web resources and services.